CDT,Max TemperatureF,Mean TemperatureF,Min TemperatureF,Max Dew PointF,MeanDew PointF,Min DewpointF,Max Humidity, Mean Humidity, Min Humidity, Max Sea Level PressureIn, Mean Sea Level PressureIn, Min Sea Level PressureIn, Max VisibilityMiles, Mean VisibilityMiles, Min VisibilityMiles, Max Wind SpeedMPH, Mean Wind SpeedMPH, Max Gust SpeedMPH,PrecipitationIn, CloudCover, Events, WindDirDegrees
2013-10-1,83,69,55,58,52,44,93,62,30,29.98,29.87,29.79,10,10,10,15,6,21,0.00,0,,239
2013-10-2,84,68,52,62,51,41,77,54,31,30.05,29.96,29.86,10,10,10,21,8,26,0.00,2,,130
2013-10-3,81,71,61,66,62,58,100,73,45,29.85,29.81,29.76,10,9,5,17,6,23,0.01,3,,168
2013-10-4,74,68,62,70,64,60,100,90,79,29.93,29.84,29.75,10,8,1,21,11,25,1.16,5,Rain-Thunderstorm,117
2013-10-5,72,58,43,67,44,36,87,67,46,29.91,29.83,29.78,10,10,10,20,9,24,T,3,Rain,239
2013-10-6,50,47,43,48,41,37,93,82,71,29.87,29.78,29.73,10,10,5,15,7,21,0.02,8,Rain,270
2013-10-7,74,57,40,47,42,36,100,64,27,30.04,29.97,29.89,10,10,10,20,8,30,0.00,0,,260
2013-10-8,76,63,49,46,44,42,86,59,31,30.08,30.03,29.99,10,10,10,24,12,32,0.00,0,,182
2013-10-9,75,61,47,50,46,42,93,63,33,30.12,30.08,30.04,10,10,10,17,10,21,0.00,0,,152
2013-10-10,76,60,43,51,47,41,96,66,36,30.09,30.02,29.92,10,10,10,18,9,22,0.00,0,,143
2013-10-11,76,64,51,61,56,49,96,75,54,29.92,29.83,29.74,10,10,9,30,14,38,0.00,2,,149
2013-10-12,68,55,42,63,40,29,86,56,26,30.25,30.02,29.80,10,10,10,23,10,32,T,1,Rain,277
2013-10-13,65,48,31,37,32,29,89,58,26,30.46,30.38,30.27,10,10,10,10,4,35,0.00,0,,4
2013-10-14,65,50,35,45,36,31,89,62,34,30.38,30.18,29.86,10,10,10,26,15,33,0.02,1,Rain,118
2013-10-15,58,53,47,56,47,41,93,75,57,29.90,29.84,29.77,10,9,2,23,16,30,0.30,8,Rain,221
2013-10-16,49,45,40,45,42,39,93,85,77,29.99,29.95,29.89,10,10,9,17,9,23,T,8,Rain,282
2013-10-17,60,50,39,43,38,32,100,68,35,29.96,29.89,29.82,10,10,10,21,7,26,0.00,1,,264
2013-10-18,51,43,35,38,33,27,85,62,39,30.04,29.99,29.92,10,10,10,21,10,26,0.00,4,,290
2013-10-19,54,44,33,39,34,30,89,68,46,29.94,29.85,29.78,10,10,10,25,9,30,T,6,Rain,258
2013-10-20,60,48,35,43,36,30,89,68,47,29.93,29.79,29.69,10,10,10,24,10,32,T,6,Rain,248
2013-10-21,49,38,26,32,26,22,92,64,36,30.06,30.01,29.94,10,10,10,22,9,33,0.00,3,,297
2013-10-22,38,33,27,34,32,24,100,91,82,30.08,29.97,29.90,10,7,2,15,7,17,0.21,8,Rain-Snow,34
2013-10-23,42,35,27,36,30,25,92,74,55,30.14,30.09,30.05,10,10,9,16,8,21,0.01,6,Rain,291
2013-10-24,46,37,27,27,25,22,85,65,45,30.37,30.28,30.14,10,10,10,23,9,28,0.00,4,,307
2013-10-25,54,38,22,31,27,22,96,67,38,30.41,30.26,30.01,10,10,10,24,11,30,0.00,1,,223
2013-10-26,51,40,28,33,28,25,79,59,38,30.16,30.07,29.93,10,10,10,25,13,31,0.00,0,,295
2013-10-27,60,42,23,32,28,22,92,63,33,30.11,30.00,29.87,10,10,10,18,7,23,0.00,0,,194
2013-10-28,52,42,31,37,33,28,89,74,59,30.32,30.21,29.99,10,10,10,22,12,26,0.00,0,,60
2013-10-29,58,48,37,47,40,32,85,73,61,30.30,30.14,30.04,10,10,5,21,12,25,T,6,,112
2013-10-30,61,56,50,59,53,48,100,92,84,30.02,29.90,29.63,10,5,0,23,11,29,0.41,8,Fog-Rain-Thunderstorm,124
2013-10-31,61,51,40,61,45,39,100,92,83,29.62,29.54,29.45,10,8,2,20,10,23,0.01,8,Rain,282